Location: Leiter
(44.7178°N, 106.2687°W)
Time: 16:55:41
(UTC+00:00)

STARS - Pass Details

Date: 03 July 2022
Orbit: 620 x 637 km, 98.2° (Epoch: 18 August)

Event Time Altitude Azimuth Distance (km) Brightness Sun altitude
Rises 05:25:50 0° 18° (NNE) 2,931 ? -18.3°
Reaches altitude 10° 05:28:07 10° 25° (NNE) 2,016 ? -18.5°
Maximum altitude 05:32:21 47° 99° (E) 833 ? -18.8°
Enters shadow 05:33:15 41° 136° (SE) 918 ? -18.9°
